Location: Limoges
(45.8500°N, 1.2500°E)
Time: 12:43:05
(UTC+02:00)

ISS - Visible Passes

Search period start: 25 June 2022 00:00
Search period end: 05 July 2022 00:00
Orbit: 414 x 420 km, 51.6° (Epoch: 25 June)

Date Brightness Start Highest point End Pass type
(mag) Time Alt. Az. Time Alt. Az. Time Alt. Az.
27 Jun -1.8 04:54:38 10° S 04:57:05 20° SE 04:59:38 10° E visible
28 Jun -1.4 04:08:09 12° SSE 04:08:59 12° SE 04:10:28 10° ESE visible
29 Jun -3.3 04:54:30 16° SW 04:56:58 48° SE 05:00:14 10° ENE visible
30 Jun -2.6 04:07:53 26° S 04:08:44 30° SE 04:11:44 10° ENE visible
01 Jul -1.7 03:21:12 18° ESE 03:21:12 18° ESE 03:23:00 10° E visible
01 Jul -3.7 04:54:05 13° WSW 04:56:59 76° NNW 05:00:21 10° ENE visible
02 Jul -3.8 04:07:21 35° SW 04:08:37 72° SSE 04:11:59 10° ENE visible
03 Jul -3.2 03:20:33 44° SE 03:20:33 44° SE 03:23:32 10° ENE visible
03 Jul -2.7 04:53:52 10° W 04:57:05 42° NNW 05:00:19 10° NE visible
04 Jul -1.6 02:33:42 18° E 02:33:42 18° E 02:34:56 10° E visible
04 Jul -3.2 04:06:34 21° W 04:08:36 55° NNW 04:11:56 10° ENE visible
